METEOR 2-5 DEB, 38278

Orbit data source: Space-Track

METEOR 2-5 DEB, 38278 is space debris in LEO originally from a launch on Wed, 31 Oct 1979 UTC launched from the Plesetsk Missile And Space Complex (PKMTR). Debris objects in space refer to the collection of defunct objects orbiting the Earth. Examples of debris include non-operational satellites, rocket bodies, and fragments generated from explosions, collisions, or faulty payload assembly.

Loading next visibility...
Identifier
38278, 1979-095BY
Orbit
LEO
Country
Flag of CISCIS
Related business
Manufacturer
Unknown
Mission
Spacecraft
Bus & Motor
Unknown
Mass
Unknown
Launch date (UTC)
1979-10-31 (46 years ago)
Launch vehicle
Unknown
Launch site
Plesetsk Missile And Space Complex (PKMTR)
Object type
Payload
Rocket body
Debris
Shape & HBR
Unknown shape, 0.1 m
Radar Cross Section
Small (<0.1 m²)

Expand to show TLE details & history
Last TLE update: 2 days ago

TLE from 2 days ago
0 METEOR 2-5 DEB
1 38278U 79095BY  25353.22909932  .00006236  00000-0  21663-2 0  9999
2 38278  81.1700 313.4812 0000372  90.2704 334.1823 14.35438710734760
Epoch: 2025-12-19T05:29Z
TLE epoch observation values (Epoch: 2025-12-19T05:29:54.181Z)
Latitude
63.15808°
Longitude
160.71069°
Altitude
784.191 km
Speed
7.468 km/s
True Right ascension
22h 05m 02s
True Declination
63° 01' 11"
Sunlit
Object was in daylight at epoch
Visualization orbit readout
Latitude
Unknown
Longitude
Unknown
Altitude
Unknown
Speed
Unknown
Apparent Right ascension
Unknown
Apparent Declination
Unknown
Sunlit
N/A
Visualization observer readout
Local Sidereal Time
01:13:44
Azimuth
Unknown
Elevation
Unknown
Doppler factor
Unknown
Orbital elements
Apogee altitude
771.019 km
Perigee altitude
770.487 km
Semi-major axis
7,148.89 km
Eccentricity
0.00004
Inclination
81.17°
RAAN
313.4812°
Arg. of periapsis
90.2704°
True anomaly
334.18044°
Mean anomaly
334.1823°
Eccentric anomaly
334.18137°
Mean motion
3.59075 °/min
Orbital period
100.26 mins
BSTAR
0.0021663
Loading maneuver chart data...
Computing Atmospheric mass density...

Documentation

Showing up to 5 results
|